Regional Weather Roundup
Issued by NWS

Home | Current Version | Previous Version | Text Only | Print | Product List | Glossary On
Versions: 1 2 3 4 5 6 7 8 9 10 11 12 13 14 15 16 17 18 19 20 21 22 23 24 25 26 27 28 29 30 31 32 33 34 35 36 37 38 39 40 41 42 43 44 45 46 47 48 49 50
000
ASUS44 KBMX 262110
RWRAL

ALABAMA REGIONAL WEATHER ROUNDUP
NATIONAL WEATHER SERVICE BIRMINGHAM AL
400 PM CDT WED APR 26 2017

NOTE: "FAIR" INDICATES FEW OR NO CLOUDS BELOW 12,000 FEET
WITH NO SIGNIFICANT WEATHER AND/OR OBSTRUCTIONS TO VISIBILITY.

THE REMARK "TC" DENOTES TEMPERATURE IN DEGREES CELSIUS.

ALZ001>011-014-016>018-020-262200-
NORTH ALABAMA

CITY           SKY/WX    TMP DP  RH WIND       PRES   REMARKS
MUSCLE SHOALS  SUNNY     81  57  43 S13       29.67F
HUNTSVILLE     MOSUNNY   81  60  48 S16       29.70F
DECATUR        MOSUNNY   77  62  59 S12G18    29.70F
HALEYVILLE     FAIR      79  59  50 S14G23    29.71F
GADSDEN        SUNNY     81  61  50 S8        29.73F
$$

ALZ012-013-022-023-030>036-040>044-262200-
WEST CENTRAL ALABAMA

CITY           SKY/WX    TMP DP  RH WIND       PRES   REMARKS
TUSCALOOSA     MOSUNNY   82  60  47 S16G24    29.70F
$$

ALZ015-024>027-033>036-040>044-262200-
CENTRAL ALABAMA

CITY           SKY/WX    TMP DP  RH WIND       PRES   REMARKS
BIRMINGHAM     PTSUNNY   82  57  42 S15G21    29.74F
MONTGOMERY     MOSUNNY   84  57  39 S12G21    29.74F
SHELBY CO ARPT SUNNY     83  61  47 SE14G22   29.73F
MAXWELL AFB    MOSUNNY   84  59  43 SE14      29.73F
GREENVILLE     FAIR      83  54  36 S13       29.73F
$$

ALZ019-021-028-029-037-038-045>048-262200-
EAST CENTRAL ALABAMA

CITY           SKY/WX    TMP DP  RH WIND       PRES   REMARKS
ANNISTON       SUNNY     80  59  48 SE14      29.73F
ALEXANDER CITY SUNNY     79  58  49 S8        29.77F
AUBURN         MOSUNNY   80  58  46 S9        29.78F
$$

ALZ051>064-262200-
SOUTHWEST ALABAMA

CITY           SKY/WX    TMP DP  RH WIND       PRES   REMARKS
MOBILE         PTSUNNY   78  63  59 S17G26    29.76R
BROOKLEY FIELD MOSUNNY   78  67  68 SE16G23   29.76F
EVERGREEN      SUNNY     83  56  39 S12G23    29.74F
$$

ALZ049-050-065>069-262200-
SOUTHEAST ALABAMA

CITY           SKY/WX    TMP DP  RH WIND       PRES   REMARKS
DOTHAN         MOSUNNY   82  56  40 S9        29.81F
OZARK          MOSUNNY   82  55  39 SE13      29.77F
TROY           MOSUNNY   82  59  45 S10G23    29.76F
EUFAULA        FAIR      85  58  39 S12G18    29.76F
$$



USA.gov is the U.S. government's official web portal to all federal, state and local government web resources and services.